Regional Weather Roundup
Issued by NWS

Home | Current Version | Previous Version | Text Only | Print | Product List | Glossary On
Versions: 1 2 3 4 5 6 7 8 9 10 11 12 13 14 15 16 17 18 19 20 21 22 23 24 25 26 27 28 29 30 31 32 33 34 35 36 37 38 39 40 41 42 43 44 45 46 47 48 49 50
000
ASUS43 KFSD 020410
RWRSD

WEATHER ROUNDUP FOR SOUTH DAKOTA
NATIONAL WEATHER SERVICE SIOUX FALLS SD
1100 PM CDT SUN MAY 01 2016

NOTE: "FAIR" INDICATES FEW OR NO CLOUDS BELOW 12,000 FEET WITH NO
SIGNIFICANT WEATHER AND/OR OBSTRUCTIONS TO VISIBILITY.


SDZ001>005-009-010-012>017-020500-
NORTHWEST AND NORTH CENTRAL SOUTH DAKOTA

CITY           SKY/WX    TMP DP  RH WIND       PRES   REMARKS
BUFFALO          N/A     49  30  48 NW8       30.15R
FAITH            N/A     44  31  60 S9        30.20R
MOBRIDGE       CLEAR     42  33  70 CALM      30.16R
$$

SDZ012>016-024>037-041>051-057-063-072>074-020500-
SOUTHWEST AND SOUTH CENTRAL SOUTH DAKOTA

CITY           SKY/WX    TMP DP  RH WIND       PRES   REMARKS
RAPID CTY ARPT CLEAR     38  29  70 W3        30.24R
PIERRE         CLEAR     42  34  73 CALM      30.19R
CUSTER         CLEAR     36  25  64 N3        30.26R
ELLSWORTH AFB  CLEAR     43  31  63 W8        30.23R
PHILIP         CLEAR     41  34  76 CALM      30.22S
PINE RIDGE     CLEAR     36  31  82 CALM      30.24S
WINNER         FAIR      43  35  73 SW5       30.22R
$$

SDZ004>011-016>023-039-040-020500-
NORTHEAST SOUTH DAKOTA

CITY           SKY/WX    TMP DP  RH WIND       PRES   REMARKS
ABERDEEN       CLEAR     42  34  73 W5        30.16S
WATERTOWN      CLEAR     45  31  58 N3        30.15S
BROOKINGS      CLEAR     45  33  63 CALM      30.15
SISSETON         N/A     45  33  63 W5        30.13F
$$

SDZ017-020-022-023-036>040-048>070-020500-
SOUTHEAST SOUTH DAKOTA

CITY           SKY/WX    TMP DP  RH WIND       PRES   REMARKS
SIOUX FALLS    CLEAR     42  36  79 CALM      30.17R
HURON          CLEAR     46  38  73 W5        30.17S
CHAMBERLAIN    CLEAR     47  40  76 CALM      30.20S
MITCHELL       CLEAR     48  40  73 CALM      30.18S
YANKTON        CLEAR     45  37  76 W6        30.18R
$$

ABBREVIATIONS USED IN REMARKS
   TC - TEMPERATURE IN CELSIUS
  WCI - WIND CHILL INDEX
   HX - HEAT INDEX
  VSB - VISIBILITY




USA.gov is the U.S. government's official web portal to all federal, state and local government web resources and services.